Flag for United Kingdom Weather past 2 weeks in Londonderry, Northern Ireland, United Kingdom

Now
50 °F

Partly sunny.


Feels Like: 43 °F
Forecast: 43 / 50 °F
Wind: 22 mph from Southwest

Location: Eglinton / Londonderry

Current Time: Mar 5, 2015 at 11:06:56 AM

Latest Report: Mar 5, 2015 at 10:20 AM


Visibility: N/A

Pressure: 30.36 "Hg

Humidity: 76%

Dew point: 43 °F

Location of LondonderryLocation

Historic Weather in Londonderry — Graph

°F

Londonderry temperature yesterday

Maximum temperature yesterday: 50 °F (at 12:20 PM)
Minimum temperature yesterday: 39 °F (at 5:50 AM)
Average temperature yesterday: 45 °F

Past Weeks' High & Low Weather Summary

 TemperatureHumidityPressure
High55 °F (Feb 18, 1:50 PM)100% (Feb 22, 7:50 PM)30.45 "Hg (Feb 22, 7:50 PM)
Low32 °F (Mar 3, 5:50 AM)58% (Mar 4, 12:20 PM)28.62 "Hg (Feb 23, 2:50 PM)
Average42 °F84%29.56 "Hg
* Reported Feb 18 9:20 AM — Mar 5 9:50 AM, Londonderry, Weather by CustomWeather, © 2015

Note: Actual official high and low records may vary slightly from our data, if they occured in-between our weather recording intervals... More about our weather records

Advertising

Londonderry weather history for previous 24 hours

 ConditionsComfort  
Time TempWeatherWind HumidityBarometerVisibility
9:50 AM
Thu, Mar 5
48 °FScattered showers. Partly sunny.23 mph82%30.36 "HgN/A
9:20 AM48 °FPartly sunny.26 mph82%30.36 "HgN/A
8:50 AM48 °FPartly sunny.22 mph82%30.36 "HgN/A
8:20 AM48 °FPartly sunny.21 mph82%30.36 "HgN/A
7:50 AM46 °FPartly sunny.17 mph87%30.36 "HgN/A
7:20 AM48 °FPartly sunny.20 mph82%30.36 "HgN/A
6:50 AM46 °FPassing clouds.22 mph87%30.36 "HgN/A
6:20 AM46 °FPassing clouds.23 mph87%30.36 "HgN/A
5:50 AM46 °FPassing clouds.17 mph82%30.39 "HgN/A
3:50 PM
Wed, Mar 4
46 °FScattered clouds.14 mph76%30.45 "HgN/A
3:20 PM46 °FScattered clouds.18 mph71%30.45 "HgN/A
2:50 PM48 °FScattered clouds.16 mph66%30.45 "HgN/A
2:20 PM48 °FScattered clouds.15 mph66%30.42 "HgN/A
1:50 PM48 °FScattered clouds.17 mph62%30.42 "HgN/A
1:20 PM48 °FPartly sunny.14 mph62%30.45 "HgN/A
12:50 PM50 °FPartly sunny.17 mph62%30.42 "HgN/A
12:20 PM50 °FPassing clouds.15 mph58%30.42 "HgN/A
11:50 AM48 °FPassing clouds.16 mph62%30.42 "HgN/A
11:20 AM48 °FPassing clouds.14 mph71%30.39 "HgN/A
Weather by CustomWeather, © 2015

See weather overviewHow to use our weather pages